Showing default

GLOBALSTAR M048, 25872

Orbit data source: Space-Track

GLOBALSTAR M048, 25872 is a payload satellite owned by Globalstar (US) in LEO that was launched on Sun, 25 Jul 1999 UTC via a DELTA 7420-10C launch vehicle from the Air Force Eastern Test Range (AFETR). Payload-class satellites include a variety of spacecraft equipped with specific instruments for various scientific and technological missions. These include communications satellites like Starlink; space stations such as the ISS; scientific satellites like the Hubble; Earth observation satellites from companies like Planet Labs, Umbra, and HawkEye 360; GPS; miniature CubeSats for education and research; and military/defense satellites.

Loading next visibility...
Identifier
25872, 1999-041A
Orbit
LEO
Country
Flag of UnknownUnknown / GLOB
Related business
Manufacturer
SS/Loral
Mission
Non-operational Commercial Communications
Bus & Motor
LS-400, LS-400 AOCS
Mass
450 kg wet, 380 kg dry
Launch date (UTC)
1999-07-25 (26 years ago)
Launch vehicle
DELTA 7420-10C
Launch site
Air Force Eastern Test Range (AFETR)
Object type
Payload
Rocket body
Debris
Shape & HBR
Box + 2 Pan, 6.0 m
Radar Cross Section
5.587 m², Large (>1 m²)

Expand to show TLE details & history
Last TLE update: 19 hours ago

TLE from 19 hours ago
0 GLOBALSTAR M048
1 25872U 99041A   25310.50903557 -.00000052  00000-0  48153-3 0  9994
2 25872  51.9405 358.0937 0013376  72.2615  68.0324 11.33859681141125
Epoch: 2025-11-06T12:13Z
TLE epoch observation values (Epoch: 2025-11-06T12:13:00.673Z)
Latitude
30.1793°
Longitude
-78.07489°
Altitude
1,988.716 km
Speed
6.908 km/s
True Right ascension
10h 04m 34s
True Declination
30° 03' 07"
Sunlit
Object was in daylight at epoch
Visualization orbit readout
Latitude
Unknown
Longitude
Unknown
Altitude
Unknown
Speed
Unknown
Apparent Right ascension
Unknown
Apparent Declination
Unknown
Sunlit
N/A
Visualization observer readout
Local Sidereal Time
03:48:27
Azimuth
Unknown
Elevation
Unknown
Doppler factor
Unknown
Orbital elements
Apogee altitude
2,002.858 km
Perigee altitude
1,980.467 km
Semi-major axis
8,369.799 km
Eccentricity
0.00134
Inclination
51.9405°
RAAN
358.0937°
Arg. of periapsis
72.2615°
True anomaly
68.17464°
Mean anomaly
68.0324°
Eccentric anomaly
68.10351°
Mean motion
2.83446 °/min
Orbital period
127.01 mins
BSTAR
0.00048153
Loading maneuver chart data...
Computing Atmospheric mass density...
Loading historical data...
Loading historical data...
Loading historical data...
Loading historical data...
Loading historical data...
Loading historical data...
Loading historical data...
Other satellites on launch #41 in the year 1999 (1999-07-25 UTC)

Documentation

Showing up to 5 results
|